OK2ZAW-19 Weather Reports


time (UTC)temp
C
wind
direction
speed
KPH
gust
KPH
rain 1hr
cm
rain 24hr
cm
rain mn
cm
humidity
%
barometer
mb
20260507204753 8 315 1.6 1.6 0.00 0.00 0.00 10 1015.5
20260507203732 8 315 0.0 1.6 0.00 0.00 0.00 10 1015.5
20260507203222 8 315 0.0 1.6 0.00 0.00 0.00 10 1015.4
20260507202712 8 315 0.0 1.6 0.00 0.00 0.00 10 1015.3
20260507202202 8 315 0.0 1.6 0.00 0.00 0.00 10 1015.2
20260507201651 8 315 0.0 1.6 0.00 0.00 0.00 10 1015.0
20260507201141 8 315 1.6 3.2 0.00 0.00 0.00 10 1015.0
20260507200631 8 315 0.0 1.6 0.00 0.00 0.00 10 1014.9
20260507200121 8 315 0.0 3.2 0.00 0.00 0.00 10 1014.8
20260507195610 8 315 0.0 0.0 0.00 0.00 0.00 10 1014.8
20260507195100 8 315 0.0 0.0 0.00 0.00 0.00 10 1014.8
20260507194550 8 315 0.0 0.0 0.00 0.00 0.00 10 1014.7
20260507194040 8 315 0.0 0.0 0.00 0.00 0.00 10 1014.6
20260507193530 8 315 0.0 1.6 0.00 0.00 0.00 10 1014.6
20260507193019 9 315 0.0 1.6 0.00 0.00 0.00 10 1014.6
20260507192509 9 315 0.0 0.0 0.00 0.00 0.00 10 1014.5
20260507191448 10 315 0.0 1.6 0.00 0.00 0.00 98 1014.5
20260507190938 10 315 1.6 3.2 0.00 0.00 0.00 96 1014.4
20260507190428 10 315 1.6 4.8 0.00 0.00 0.00 90 1014.4
20260507185407 10 315 0.0 1.6 0.00 0.00 0.00 81 1014.2
20260507184857 10 315 1.6 3.2 0.00 0.00 0.00 83 1014.1
20260507184346 10 315 1.6 1.6 0.00 0.00 0.00 75 1014.0
20260507183836 11 315 0.0 1.6 0.00 0.00 0.00 72 1013.9
20260507183325 11 315 1.6 3.2 0.00 0.00 0.00 70 1013.8
20260507182306 11 315 1.6 4.8 0.00 0.00 0.00 66 1013.6
20260507181243 12 315 0.0 1.6 0.00 0.00 0.00 60 1013.7
20260507180222 14 315 1.6 3.2 0.00 0.00 0.00 58 1013.3
20260507175711 15 315 1.6 3.2 0.00 0.00 0.00 56 1013.3
20260507175200 15 315 0.0 1.6 0.00 0.00 0.00 57 1013.3
20260507174649 15 315 1.6 3.2 0.00 0.00 0.00 56 1013.3
20260507174138 15 315 1.6 3.2 0.00 0.00 0.00 56 1013.3
20260507173628 15 315 1.6 3.2 0.00 0.00 0.00 54 1013.3
20260507173117 16 315 1.6 1.6 0.00 0.00 0.00 52 1013.3
20260507172054 16 315 1.6 4.8 0.00 0.00 0.00 55 1013.3
20260507171543 16 315 1.6 3.2 0.00 0.00 0.00 55 1013.2
20260507171032 16 315 1.6 4.8 0.00 0.00 0.00 57 1013.2
20260507170522 15 315 3.2 6.4 0.00 0.00 0.00 59 1013.2
20260507170011 14 315 1.6 4.8 0.00 0.00 0.00 60 1013.2
20260507165500 14 315 1.6 6.4 0.00 0.00 0.00 59 1013.1
20260507164949 15 315 3.2 4.8 0.00 0.00 0.00 59 1013.1
20260507164438 15 315 3.2 6.4 0.00 0.00 0.00 58 1013.0
20260507163927 15 315 3.2 8.0 0.00 0.00 0.00 58 1012.9
20260507163416 15 315 3.2 6.4 0.00 0.00 0.00 57 1012.9
20260507162906 16 315 1.6 4.8 0.00 0.00 0.00 57 1012.8
20260507162355 16 315 3.2 4.8 0.00 0.00 0.00 56 1012.9
20260507161844 16 315 1.6 3.2 0.00 0.00 0.00 56 1012.8
20260507161333 16 315 1.6 6.4 0.00 0.00 0.00 55 1012.8
20260507160822 16 315 1.6 4.8 0.00 0.00 0.00 54 1012.9
20260507160317 16 315 3.2 8.0 0.00 0.00 0.00 53 1012.9
20260507160311 16 315 3.2 8.0 0.00 0.00 0.00 53 1012.9
20260507155800 17 315 3.2 4.8 0.00 0.00 0.00 52 1012.9
20260507155248 17 315 1.6 4.8 0.00 0.00 0.00 52 1012.8
20260507154737 18 315 3.2 4.8 0.00 0.00 0.00 50 1012.8
20260507154226 18 315 3.2 9.7 0.00 0.00 0.00 49 1012.7
20260507153715 18 315 3.2 4.8 0.00 0.00 0.00 48 1012.8
20260507153204 18 315 4.8 8.0 0.00 0.00 0.00 47 1012.8
20260507152652 20 315 4.8 9.7 0.00 0.00 0.00 47 1012.7
20260507152141 20 315 4.8 8.0 0.00 0.00 0.00 47 1012.8
20260507151629 20 315 3.2 6.4 0.00 0.00 0.00 47 1012.7
20260507151118 19 315 3.2 6.4 0.00 0.00 0.00 47 1012.5
20260507150606 21 315 1.6 3.2 0.00 0.00 0.00 46 1012.6
20260507145543 20 315 4.8 8.0 0.00 0.00 0.00 50 1012.5
20260507145032 18 315 3.2 6.4 0.00 0.00 0.00 48 1012.5
20260507144520 21 315 3.2 6.4 0.00 0.00 0.00 46 1012.6
20260507144009 21 315 3.2 6.4 0.00 0.00 0.00 46 1012.6
20260507143457 20 315 3.2 4.8 0.00 0.00 0.00 48 1012.6
20260507142946 19 315 3.2 6.4 0.00 0.00 0.00 52 1012.6
20260507142435 19 315 3.2 6.4 0.00 0.00 0.00 52 1012.6
20260507141923 19 315 3.2 4.8 0.00 0.00 0.00 50 1012.6
20260507141412 21 315 3.2 6.4 0.00 0.00 0.00 47 1012.7
20260507135837 20 315 3.2 6.4 0.00 0.00 0.00 49 1012.7
20260507135326 20 315 3.2 6.4 0.00 0.00 0.00 50 1012.7
20260507134814 20 315 6.4 9.7 0.00 0.00 0.00 52 1012.6
20260507133752 17 315 3.2 6.4 0.00 0.00 0.00 58 1012.6
20260507132730 17 315 3.2 6.4 0.00 0.00 0.00 56 1012.6
20260507132218 17 315 4.8 6.4 0.00 0.00 0.00 53 1012.6
20260507131707 18 315 4.8 8.0 0.00 0.00 0.00 52 1012.7
20260507131156 19 315 6.4 8.0 0.00 0.00 0.00 53 1012.8
20260507130645 19 315 4.8 8.0 0.00 0.00 0.00 54 1012.7
20260507125622 17 315 4.8 6.4 0.00 0.00 0.00 58 1012.7
20260507125111 17 315 6.4 9.7 0.00 0.00 0.00 57 1012.8
20260507124600 17 315 4.8 6.4 0.00 0.00 0.00 56 1012.7
20260507124049 17 315 3.2 6.4 0.00 0.00 0.00 57 1012.6
20260507123537 18 315 6.4 8.0 0.00 0.00 0.00 55 1012.7
20260507123026 18 315 6.4 8.0 0.00 0.00 0.00 56 1012.6
20260507122515 18 315 6.4 9.7 0.00 0.00 0.00 56 1012.6
20260507121453 17 315 4.8 6.4 0.00 0.00 0.00 67 1012.7
20260507120941 16 315 4.8 9.7 0.00 0.00 0.00 65 1012.6
20260507120430 17 315 4.8 6.4 0.00 0.00 0.00 63 1012.7
20260507115919 17 315 4.8 8.0 0.00 0.00 0.00 67 1012.7
20260507115408 17 315 3.2 4.8 0.00 0.00 0.00 66 1012.7
20260507114857 17 315 4.8 6.4 0.00 0.00 0.00 68 1012.6
20260507114346 16 315 4.8 9.7 0.00 0.00 0.00 65 1012.6
20260507113835 17 315 6.4 8.0 0.00 0.00 0.00 67 1012.7
20260507112813 17 315 3.2 4.8 0.00 0.00 0.00 69 1012.8
20260507112306 17 315 4.8 8.0 0.00 0.00 0.00 68 1012.7
20260507111750 17 315 4.8 8.0 0.00 0.00 0.00 70 1012.7
20260507111239 16 315 4.8 6.4 0.00 0.00 0.00 68 1012.8
20260507110728 17 315 4.8 6.4 0.00 0.00 0.00 70 1012.7
20260507110217 17 315 4.8 8.0 0.00 0.00 0.00 68 1012.6
20260507105155 17 315 6.4 8.0 0.00 0.00 0.00 77 1012.6
20260507104644 16 315 4.8 6.4 0.00 0.00 0.00 81 1012.6
20260507104133 16 315 6.4 8.0 0.00 0.00 0.00 77 1012.7
20260507103622 16 315 6.4 8.0 0.00 0.00 0.00 78 1012.6
20260507103111 17 315 4.8 8.0 0.00 0.00 0.00 83 1012.6
20260507102559 16 315 4.8 8.0 0.00 0.00 0.00 88 1012.6
20260507102048 16 315 4.8 8.0 0.00 0.00 0.00 88 1012.6
20260507101027 15 315 3.2 6.4 0.00 0.00 0.00 89 1012.5
20260507100516 15 315 4.8 8.0 0.00 0.00 0.00 89 1012.5
20260507100005 15 315 4.8 9.7 0.00 0.00 0.00 95 1012.5
20260507095454 15 315 4.8 8.0 0.00 0.00 0.00 98 1012.5
20260507094943 15 315 6.4 8.0 0.00 0.00 0.00 97 1012.5
20260507094432 15 315 4.8 6.4 0.00 0.00 0.00 10 1012.3
20260507093921 14 315 4.8 8.0 0.00 0.00 0.00 10 1012.4
20260507093411 14 315 4.8 8.0 0.00 0.00 0.00 10 1012.4
20260507092900 13 315 6.4 8.0 0.00 0.00 0.00 10 1012.4
20260507092349 13 315 4.8 6.4 0.00 0.00 0.00 10 1012.3
20260507091838 13 315 4.8 6.4 0.00 0.00 0.00 10 1012.4
20260507091328 13 315 4.8 11.3 0.00 0.00 0.00 10 1012.3
20260507090817 13 315 3.2 4.8 0.00 0.00 0.00 10 1012.3
20260507085756 12 315 3.2 4.8 0.00 0.00 0.00 10 1012.0
20260507085245 12 315 4.8 6.4 0.00 0.00 0.00 10 1012.0
20260507084224 12 315 3.2 6.4 0.00 0.00 0.00 10 1011.8
20260507083714 12 315 6.4 8.0 0.00 0.00 0.00 10 1011.9
20260507082653 12 315 3.2 8.0 0.00 0.00 0.00 10 1011.8
20260507082142 12 315 3.2 6.4 0.00 0.00 0.00 10 1011.8
20260507081631 12 315 1.6 3.2 0.00 0.00 0.00 10 1011.7
20260507080610 12 315 3.2 6.4 0.00 0.00 0.00 10 1011.6
20260507080100 12 315 1.6 4.8 0.00 0.00 0.00 10 1011.6
20260507075549 12 315 3.2 6.4 0.00 0.00 0.00 10 1011.7
20260507075039 12 315 3.2 4.8 0.00 0.00 0.00 10 1011.6
20260507074528 12 315 3.2 4.8 0.00 0.00 0.00 10 1011.7
20260507074017 12 315 3.2 4.8 0.00 0.00 0.00 10 1011.6
20260507073507 11 315 3.2 8.0 0.00 0.00 0.00 10 1011.7
20260507072956 11 315 1.6 3.2 0.00 0.00 0.00 10 1011.5
20260507072446 11 315 4.8 6.4 0.00 0.00 0.00 10 1011.6
20260507071935 11 315 3.2 6.4 0.00 0.00 0.00 10 1011.6
20260507071425 11 315 3.2 6.4 0.00 0.00 0.00 10 1011.5
20260507070915 11 315 3.2 4.8 0.00 0.00 0.00 10 1011.5
20260507070404 11 315 3.2 4.8 0.00 0.00 0.00 10 1011.4
20260507065853 11 315 3.2 6.4 0.00 0.00 0.00 10 1011.3
20260507065343 11 315 3.2 6.4 0.00 0.00 0.00 10 1011.4
20260507064833 11 315 3.2 8.0 0.00 0.00 0.00 10 1011.3
20260507064322 11 315 3.2 9.7 0.00 0.00 0.00 10 1011.3
20260507063812 11 315 3.2 6.4 0.00 0.00 0.00 10 1011.3
20260507063301 11 315 3.2 6.4 0.00 0.00 0.00 10 1011.3
20260507062751 11 315 3.2 3.2 0.00 0.00 0.00 10 1011.1
20260507062240 10 315 3.2 4.8 0.00 0.00 0.00 10 1011.1
20260507061730 10 315 3.2 6.4 0.00 0.00 0.00 10 1010.9
20260507060709 10 315 3.2 6.4 0.00 0.00 0.00 10 1010.9
20260507060159 10 315 3.2 4.8 0.00 0.00 0.00 10 1010.8
20260507055648 10 315 3.2 6.4 0.00 0.00 0.00 10 1010.8
20260507055138 10 315 3.2 6.4 0.00 0.00 0.00 10 1010.8
20260507054628 10 315 4.8 8.0 0.00 0.00 0.00 10 1010.7
20260507054117 10 315 3.2 8.0 0.00 0.00 0.00 10 1010.6
20260507053056 10 315 3.2 4.8 0.00 0.00 0.00 10 1010.6
20260507052546 10 315 3.2 4.8 0.00 0.00 0.00 10 1010.4
20260507052036 10 315 3.2 6.4 0.00 0.00 0.00 10 1010.3
20260507051525 10 315 3.2 6.4 0.00 0.00 0.00 10 1010.4
20260507051015 10 315 3.2 4.8 0.00 0.00 0.00 10 1010.3
20260507050505 10 315 3.2 6.4 0.00 0.00 0.00 10 1010.3
20260507045954 10 315 3.2 4.8 0.00 0.00 0.00 10 1010.2
20260507045444 10 315 1.6 4.8 0.00 0.00 0.00 10 1010.1
20260507044934 10 315 3.2 4.8 0.00 0.00 0.00 10 1010.1
20260507044423 9 315 3.2 4.8 0.00 0.00 0.00 10 1010.0
20260507043403 9 315 1.6 4.8 0.00 0.00 0.00 10 1009.9
20260507042853 9 315 1.6 4.8 0.00 0.00 0.00 10 1009.9
20260507041832 9 315 3.2 4.8 0.00 0.00 0.00 10 1009.8
20260507040811 9 315 3.2 4.8 0.00 0.00 0.00 10 1009.6
20260507035751 8 315 3.2 6.4 0.00 0.00 0.00 10 1009.6
20260507035241 8 315 3.2 4.8 0.00 0.00 0.00 10 1009.4
20260507034730 8 315 3.2 4.8 0.00 0.00 0.00 10 1009.3
20260507034221 8 315 3.2 4.8 0.00 0.00 0.00 10 1009.4
20260507033710 8 315 3.2 6.4 0.00 0.00 0.00 10 1009.3
20260507033200 8 315 3.2 3.2 0.00 0.00 0.00 10 1009.2
20260507031629 8 315 1.6 4.8 0.00 0.00 0.00 10 1009.1
20260507031119 8 315 1.6 3.2 0.00 0.00 0.00 10 1009.0
20260507030609 8 315 1.6 3.2 0.00 0.00 0.00 10 1009.1
20260507030058 8 315 1.6 3.2 0.00 0.00 0.00 10 1009.0
20260507025548 8 315 1.6 1.6 0.00 0.00 0.00 10 1009.0
20260507025038 8 315 0.0 1.6 0.00 0.00 0.00 10 1008.9
20260507024528 8 315 1.6 1.6 0.00 0.00 0.00 10 1009.0
20260507024018 8 315 1.6 3.2 0.00 0.00 0.00 10 1009.1
20260507023507 8 315 1.6 3.2 0.00 0.00 0.00 10 1009.1
20260507022957 8 315 1.6 3.2 0.00 0.00 0.00 10 1009.0
20260507022447 8 315 1.6 3.2 0.00 0.00 0.00 10 1008.9
20260507021426 8 315 1.6 3.2 0.00 0.00 0.00 10 1008.8
20260507020406 8 315 1.6 3.2 0.00 0.00 0.00 10 1008.6
20260507015856 8 315 0.0 1.6 0.00 0.00 0.00 10 1008.5
20260507015346 8 315 1.6 3.2 0.00 0.00 0.00 10 1008.4
20260507014835 8 315 1.6 3.2 0.00 0.00 0.00 10 1008.4
20260507014325 8 315 1.6 3.2 0.00 0.00 0.00 10 1008.4
20260507013815 8 315 1.6 3.2 0.00 0.00 0.00 10 1008.3
20260507013305 8 315 3.2 4.8 0.00 0.00 0.00 10 1008.4
20260507012754 8 315 3.2 4.8 0.00 0.00 0.00 10 1008.4
20260507012244 8 315 1.6 3.2 0.00 0.00 0.00 10 1008.3
20260507011734 8 315 3.2 4.8 0.00 0.00 0.00 10 1008.3
20260507011224 8 315 3.2 6.4 0.00 0.00 0.00 10 1008.4
20260507010203 8 315 3.2 6.4 0.00 0.00 0.00 10 1008.2
20260507005653 8 315 3.2 4.8 0.00 0.00 0.00 10 1008.2
20260507005143 8 315 3.2 4.8 0.00 0.00 0.00 10 1008.1
20260507004632 8 315 3.2 4.8 0.00 0.00 0.00 10 1008.0
20260507004122 9 315 3.2 4.8 0.00 0.00 0.00 10 1008.0
20260507003612 9 315 1.6 4.8 0.00 0.00 0.00 10 1008.0
20260507003102 9 315 1.6 3.2 0.00 0.00 0.00 10 1008.0
20260507002551 9 315 1.6 3.2 0.00 0.00 0.00 10 1007.9
20260507001531 9 315 0.0 1.6 0.00 0.00 0.00 10 1007.7
20260507001020 9 315 0.0 0.0 0.00 0.00 0.00 10 1007.5
20260507000510 9 315 0.0 1.6 0.00 0.00 0.00 10 1007.4
20260507000000 9 315 0.0 0.0 0.00 0.00 0.00 10 1007.4
20260506235450 9 315 0.0 1.6 0.00 0.00 0.00 10 1007.3
20260506234939 9 315 0.0 1.6 0.00 0.00 0.00 10 1007.3
20260506234429 9 315 0.0 1.6 0.00 0.00 0.00 10 1007.2
20260506233919 10 315 0.0 1.6 0.00 0.00 0.00 10 1007.1
20260506233408 10 315 1.6 1.6 0.00 0.00 0.00 10 1007.1
20260506232905 -17 315 0.0 1.6 0.00 0.00 0.00
20260506232858 10 315 0.0 1.6 0.00 0.00 0.00 10 1007.1
20260506232348 10 315 0.0 1.6 0.00 0.00 0.00 10 1007.1
20260506231838 10 315 1.6 3.2 0.00 0.00 0.00 10 1007.1
20260506231327 10 315 0.0 3.2 0.00 0.00 0.00 10 1007.1
20260506230306 10 315 1.6 4.8 0.00 0.00 0.00 10 1007.2
20260506225756 10 315 0.0 3.2 0.00 0.00 0.00 10 1007.0
20260506225246 10 315 1.6 4.8 0.00 0.00 0.00 10 1006.7
20260506224735 10 315 1.6 4.8 0.00 0.00 0.00 10 1006.7
20260506224225 10 315 3.2 6.4 0.00 0.00 0.00 10 1006.6
20260506223714 11 315 3.2 6.4 0.00 0.00 0.00 10 1006.7
20260506223204 11 315 1.6 4.8 0.00 0.00 0.00 10 1006.6
20260506222653 11 315 3.2 4.8 0.00 0.00 0.00 10 1006.7
20260506222143 12 315 3.2 8.0 0.00 0.00 0.00 10 1006.7
20260506221632 12 315 3.2 6.4 0.00 0.00 0.00 10 1006.6
20260506221122 12 315 6.4 8.0 0.00 0.00 0.00 10 1006.5
20260506220611 12 315 4.8 6.4 0.00 0.00 0.00 10 1006.2
20260506220101 12 315 4.8 6.4 0.00 0.00 0.00 10 1006.2
20260506215550 12 315 3.2 6.4 0.00 0.00 0.00 10 1006.1
20260506215039 12 315 1.6 4.8 0.00 0.00 0.00 10 1006.0
20260506214529 12 315 1.6 4.8 0.00 0.00 0.00 10 1006.0
20260506214018 12 315 0.0 1.6 0.00 0.00 0.00 10 1005.9
20260506213508 12 315 1.6 3.2 0.00 0.00 0.00 10 1005.8
20260506212957 12 315 1.6 3.2 0.00 0.00 0.00 10 1005.7
20260506212447 12 315 1.6 4.8 0.00 0.00 0.00 10 1005.8
20260506211425 12 315 0.0 1.6 0.00 0.00 0.00 10 1005.7
20260506210915 12 315 0.0 1.6 0.00 0.00 0.00 10 1005.7
20260506210404 11 315 0.0 1.6 0.00 0.00 0.00 10 1005.7
20260506205343 11 315 0.0 0.0 0.00 0.00 0.00 10 1005.7
20260506204833 11 315 0.0 1.6 0.00 0.00 0.00 10 1005.7